Content
SEND FEEDBACK

Daily
Averages
Monthly
Summary
United States of America

NEWBURGH, NEW YORK


Home > North America > United States > New York
Elevation: 361 feet     Latitude: 41 30N     Longitude: 074 15W

WEATHER
 
SELECT A DAY
Number of Records: 181,987;   Date Range: 12/17/97 - 9/16/14
 
SHARE

PRINT THIS DATA

[ ← Previous Day ]
WEATHER ALMANAC - JANUARY 23, 2013
[ Next Day → ]
[ °C ]   °F
Weather ElementAverageHighLow
Temperature10.2 °F19 °F (1:54 pm)3.9 °F (11:54 pm)
Dewpoint-4 °F (8:54 pm)-7.1 °F (4:54 pm)
Humidity54.8 %80 % (9:54 pm)34 % (1:54 pm)
Barometer30.18 in30.22 in (8:54 am)30.14 in (1:54 pm)
Wind Speed6 mph12.7 mph (1:54 pm)
Wind Gust20.7 mph (2:54 pm)
Weather ElementAverage
Visibility10 mi
Wind DirectionSSW (214.8 °)

Weather ElementTotal
Precipitation---
Heating Degree Days53.6 (Base 65)
Averaged from 23 records on January 23, 2013
WEATHER CONDITIONS BREAKOUT
WIND DIRECTION BREAKOUT
WEATHER BY HOUR - JANUARY 23, 2013
[ °C ]   °F
Local TimeTemperatureDewpointHumidityBarometerVisibilityWind DirectionWind SpeedGust SpeedPrecipitationEventsConditions
1:54 AM8.1 °F-5.1 °F55 %30.17 in10.0 miWest (260°)6.9 mphClear
2:54 AM8.1 °F-6.0 °F53 %30.19 in10.0 miWest (260°)5.8 mphClear
3:54 AM8.1 °F-6.0 °F53 %30.18 in10.0 miWest (260°)3.5 mphClear
4:54 AM7.0 °F-5.1 °F58 %30.19 in10.0 miWest (270°)4.6 mphClear
5:54 AM6.1 °F-5.1 °F60 %30.19 in10.0 miSW (230°)3.5 mphClear
6:54 AM6.1 °F-5.1 °F60 %30.20 in10.0 miSW (230°)4.6 mphClear
7:54 AM6.1 °F-2.9 °F67 %30.21 in10.0 miSouth (190°)3.5 mphClear
8:54 AM9.0 °F-2.9 °F59 %30.22 in10.0 miVariable6.9 mphClear
9:54 AM12.0 °F-2.9 °F51 %30.22 in10.0 miWNW (300°)9.2 mphClear
10:54 AM12.9 °F-4.0 °F47 %30.22 in10.0 miNW (310°)11.5 mphPartly Cloudy
11:54 AM15.1 °F-4.0 °F43 %30.19 in10.0 miNW (310°)10.4 mph18.4 mphScattered Clouds
12:54 PM16.0 °F-6.0 °F38 %30.15 in10.0 miNW (320°)10.4 mph17.3 mphOvercast
1:54 PM19.0 °F-5.1 °F34 %30.14 in10.0 miWNW (290°)12.7 mph18.4 mphOvercast
2:54 PM17.1 °F-6.0 °F36 %30.14 in10.0 miNW (310°)12.7 mph20.7 mphOvercast
3:54 PM16.0 °F-5.1 °F39 %30.15 in10.0 miNW (310°)11.5 mphMostly Cloudy
4:54 PM15.1 °F-7.1 °F37 %30.16 in10.0 miWNW (290°)8.1 mphScattered Clouds
5:54 PM12.9 °F-6.0 °F43 %30.17 in10.0 miWest (280°)4.6 mphPartly Cloudy
6:54 PM12.0 °F-4.0 °F49 %30.19 in10.0 miWNW (290°)3.5 mphClear
7:54 PM8.1 °F-0.9 °F67 %30.18 in10.0 miCalmClear
8:54 PM6.1 °F0.0 °F76 %30.17 in10.0 miCalmClear
9:54 PM5.0 °F0.0 °F80 %30.17 in10.0 miSW (230°)3.5 mphClear
10:54 PM5.0 °F-0.9 °F76 %30.17 in10.0 miCalmClear
11:54 PM3.9 °F-0.9 °F80 %30.17 in10.0 miCalmClear
Hourly data recorded from KMGJ, located miles away from Newburgh, New York







STORIES FROM OUR PARTNERS